Location: Betz
(49.1556°N, 2.9558°E)
Time: 02:30:39
(UTC+00:00)

Cosmos 1892 Rocket - Pass Details

Date: 18 September 2019
Orbit: 605 x 634 km, 82.5° (Epoch: 15 October)

Event Time Altitude Azimuth Distance (km) Brightness Sun altitude
Rises 19:28:51 0° 351° (N) 2,935 7.5 -15.7°
Reaches altitude 10° 19:31:07 10° 353° (N) 2,019 6.6 -16.0°
Maximum altitude 19:35:35 76° 79° (E) 652 3.5 -16.7°
Enters shadow 19:38:38 20° 163° (SSE) 1,452 5.1 -17.1°
